Location: ???????
(55.3754°N, 39.3545°E)
Time: 15:32:44
(UTC+00:00)

CZ-2C R/B - Pass Details

Date: 14 April 2026
Orbit: 702 x 901 km, 98.2° (Epoch: 17 May)

Event Time Altitude Azimuth Distance (km) Brightness Sun altitude
Rises 21:29:12 0° 16° (NNE) 3,185 7.5 -24.9°
Reaches altitude 10° 21:31:28 10° 18° (NNE) 2,282 6.4 -24.9°
Maximum altitude 21:36:29 75° 104° (ESE) 811 3.0 -24.9°
Enters shadow 21:36:55 70° 147° (SSE) 834 2.9 -24.9°
